О сайте

Добрый день Уважаемые посетители сайта!
Этот ресурс создан с целью предоставить любителям малой авиации максимум полезной информации и возможностей по обмену различными сведениями об аэродромах и интересных маршрутах. Для этого на сайте есть странички Аэродромы - информация из баз АОПА (в том виде как она предоставляется к свободному использованию) и Каталог аэродромов и аэроклубов , с различными вариантами поиска и сортировки, возможностью найти трансфер, арендовать авто или забронировать номер в гостинице on-line, а так же возможностями :
- для аэроклубов - добавить какую либо дополнительную информацию в страничку , посвященную аэроклубу
(чтобы добавить информацию необходимо зарегистрироваться, и подтвердить свою принадлежность к какому либо аэроклубу)
- для посетителей - поделиться каким либо интересным маршрутом, нарисовать его на карте, описать достопримечательности, загрузить фотографии и поставить в соответствие с каким либо клубом или аэродромом.
(чтобы добавить информацию необходимо зарегистрироваться)

Аэроклубы / Аэродромы в Москве

Карта аэродромов в Москве по коду ИКАО

Список аэродромов Москвы

Javascript is required to view this map.

Авиационная погода в Москва - Домодедово

Регион: 
Погода METAR: 
UUDD 150000Z 17004MPS CAVOK M00/M02 Q1029 R14R/CLRD60 NOSIG
Время наблюдения: 
2019-11-15T00:00:00Z
Температура C: 
0.0
Точка росы: 
-2.0
Направление ветра: 
170
Скорость ветра: 
8
Метеорологическая видимость: 
6.21
Условия полета: 
VFR
Аэропорт подробнее: 

Авиационная погода в Москва - Шереметьево

Регион: 
Погода METAR: 
UUEE 150000Z 17004MPS CAVOK 02/01 Q1029 R24L/CLRD62 NOSIG
Время наблюдения: 
2019-11-15T00:00:00Z
Температура C: 
2.0
Точка росы: 
1.0
Направление ветра: 
170
Скорость ветра: 
8
Метеорологическая видимость: 
6.21
Условия полета: 
VFR
Аэропорт подробнее: 

Авиационная погода в Москва - Внуково

Регион: 
Погода METAR: 
UUWW 150000Z 14002MPS 8000 NSC 00/M01 Q1029 R24/190055 NOSIG
Время наблюдения: 
2019-11-15T00:00:00Z
Температура C: 
0.0
Точка росы: 
-1.0
Направление ветра: 
140
Скорость ветра: 
4
Метеорологическая видимость: 
4.97
Условия полета: 
MVFR
Аэропорт подробнее: 

Аэроклубы и аэродромы по регионам Юга России


Найти трансфер

С помощью этой формы Вы можете найти трансфер из аэропорта в город, аэропорт или вокзал: